Hourly Data Report for March 15, 2020

MAYO A
YUKON TERRITORY
Current Station Operator: NAVCAN

63°36'59.000" N
135°52'06.000" W
503.80 m
2100701
71965
YMA

Download Data

Hourly Data (March 2020)
Hourly Data Report for March 15, 2020
TIME
LST
Temp Definition
°C
Dew Point Definition
°C
Rel Hum Definition
%
Precip. Amount Definition
mm

Wind Dir Definition
10's deg

Wind Spd Definition
km/h
Visibility Definition
km
Stn Press Definition
kPa
Hmdx Definition


Wind Chill Definition


Weather Definition


00:00 -13.8 -16.1 83   35 6 32.2 97.54   -18 LegendNANA
01:00 -15.1 -17.7 81   36 1 32.2 97.54   -16 Mainly Clear
02:00 -16.4 -17.9 88   35 3 32.2 97.55   -19 LegendNANA
03:00 -18.8 -20.9 84   0 1 32.2 97.54   -20 LegendNANA
04:00 -18.4 -20.6 83   36 1 32.2 97.50   -19 Mainly Clear
05:00 -19.9 -22.1 83     0 32.2 97.49     LegendNANA
06:00 -20.4 -22.6 83   34 4 32.2 97.48   -24 LegendNANA
07:00 -20.5 -22.3 85   35 7 32.2 97.48   -26 Mainly Clear
08:00 -22.7 -25.2 81   36 3 32.2 97.46   -25 LegendNANA
09:00 -15.6 -18.6 78   1 7 32.2 97.44   -21 LegendNANA
10:00 -15.4 -18.4 78   10 5 32.2 97.47   -19 Mostly Cloudy
11:00 -13.3 -17.7 70   9 4 32.2 97.46   -16 LegendNANA
12:00 -11.2 -17.1 62   9 6 32.2 97.41   -15 LegendNANA
13:00 -9.0 -16.4 56   11 3 32.2 97.33   -11 Cloudy
14:00 -7.0 -15.1 53   10 4 32.2 97.24   -9 LegendNANA
15:00 -5.9 -14.4 51   9 4 32.2 97.14   -8 LegendNANA
16:00 -4.9 -14.3 48   12 3 32.2 97.08   -6 Mostly Cloudy
17:00 -4.9 -13.9 50   9 5 32.2 97.01   -7 LegendNANA
18:00 -5.0 -13.1 53   2 5 32.2 96.94   -7 LegendNANA
19:00 -5.5 -13.0 56   1 9 32.2 96.89   -10 Cloudy
20:00 -5.7 -13.1 56   36 10 32.2 96.85   -10 LegendNANA
21:00 -6.4 -13.1 59   1 13 32.2 96.82   -12 LegendNANA
22:00 -6.5 -13.1 60   2 7 32.2 96.73   -10 Cloudy
23:00 -6.3 -13.1 59   1 9 32.2 96.64   -11 LegendNANA

Notes on Data Quality.

Legend

  • E = Estimated
  • M = Missing
  • NA = Not Available*
  • [empty] = Indicates an unobserved value
Date modified: